www.pogodaiklimat.ru

Погода и климат >> Архив погоды >> Мексика >> Loreto


ПОГОДА в Loreto

  • Прогноз погоды в Loreto
  • Монитор погоды в Loreto
  • Климат города

АРХИВ ПОГОДЫ в Loreto

Время (UTC), дата Ветер
(напр.,м/с)
 
Видим.   Явления Облачность Т
(С)
Тd
(С)
f
(%)
Тe
(С)
Тes
(С)
Комфортность P
(гПа)
Po
(гПа)
Тmin
(С)
Tmax
(С)
R
(мм)
R24
(мм)
S
(см)
18 12.09 СВ 2 20 км ясно +35.2 +23.5 51 +46 +62 опасность
перегрева
1010.6 1009.8 +27.5 +35.5
21 12.09 СВ 2 20 км ясно +36.5 +24.3 50 +49 +64 опасность
перегрева
1008.8 1008.0
00 13.09 СВ 2 20 км ясно +35.3 +22.9 49 +45 +48 опасность
перегрева
1006.3 1005.5 +27.5 +37.5
03 13.09 штиль 0 20 км ясно +32.4 +26.0 69 +48 +48 опасность
перегрева
1007.3 1006.6
12 13.09 штиль 0 20 км ясно +30.0 +20.8 58 +37 +37 очень
душно
1007.7 1006.9 +29.5 +37.5
15 13.09 штиль 0 20 км ясно +31.6 +21.4 55 +40 +44 очень
душно
1008.6 1007.9
18 13.09 В 1 20 км ясно +36.0 +22.6 46 +45 +64 опасность
перегрева
1009.0 1008.2 +28.8 +36.4
21 13.09 СВ 2 20 км ясно +37.5 +23.9 46 +49 +64 опасность
перегрева
1007.2 1006.5
00 14.09 В 1 20 км ясно +36.1 +24.4 51 +48 +51 опасность
перегрева
1005.7 1005.0 +28.8 +37.6
03 14.09 штиль 0 20 км ясно +32.4 +25.9 69 +48 +48 опасность
перегрева
1006.3 1005.5
12 14.09 штиль 0 20 км ясно +30.2 +19.9 54 +36 +36 очень
душно
1008.0 1007.2 +29.5 +36.1
15 14.09 штиль 0 20 км ясно +31.2 +19.4 50 +37 +41 очень
душно
1009.2 1008.5
18 14.09 Ю 2 20 км ясно +35.3 +22.4 47 +44 +60 опасность
перегрева
1010.7 1009.9 +29.0 +36.0
21 14.09 Ю 2 20 км ясно +36.4 +20.4 39 +42 +58 опасность
перегрева
1007.9 1007.1
00 15.09 Ю 3 20 км ясно +34.2 +25.0 59 +48 +50 опасность
перегрева
1007.0 1006.3 +29.0 +37.2
03 15.09 Ю 1 20 км ясно +30.5 +26.7 80 +47 +47 опасность
перегрева
1008.2 1007.4
12 15.09 штиль 0 20 км ясно +28.2 +21.3 66 +36 +36 очень
душно
1008.6 1007.9 +27.7 +37.3
15 15.09 штиль 0 20 км ясно +30.0 +20.0 55 +36 +40 очень
душно
1009.6 1008.8
18 15.09 В 1 20 км ясно +34.8 +22.3 48 +44 +62 опасность
перегрева
1010.0 1009.2 +27.0 +35.5
21 15.09 ЮВ 2 20 км ясно +35.4 +23.5 50 +46 +61 опасность
перегрева
1008.3 1007.5
00 16.09 Ю 3 20 км ясно +34.0 +24.9 59 +47 +49 опасность
перегрева
1007.4 1006.6 +27.8 +36.8
03 16.09 Ю 2 20 км ясно +31.3 +24.7 68 +44 +44 опасность
перегрева
1008.0 1007.3
06 16.09 штиль 0 20 км ясно +30.2 +18.9 51 +36 +36 очень
душно
1009.1 1008.4 +27.0 +36.8
09 16.09 штиль 0 20 км ясно +29.0 +17.1 49 +33 +33 очень
душно
1008.5 1007.7
12 16.09 штиль 0 20 км ясно +27.5 +17.6 55 +32 +32 очень
душно
1008.0 1007.3 +27.0 +36.8
15 16.09 З 1 20 км ясно +30.5 +17.7 46 +35 +38 очень
душно
1009.4 1008.6
18 16.09 СВ 2 20 км ясно +34.8 +22.6 49 +44 +60 опасность
перегрева
1010.2 1009.5 +26.0 +35.1
21 16.09 ЮВ 2 20 км ясно +35.1 +20.7 43 +42 +57 опасность
перегрева
1008.5 1007.7
00 17.09 Ю 2 20 км ясно +34.6 +22.2 49 +44 +46 опасность
перегрева
1007.2 1006.5 +26.0 +36.4
03 17.09 Ю 1 20 км ясно +30.7 +24.2 68 +43 +43 опасность
перегрева
1008.1 1007.3
06 17.09 Ю 1 20 км ясно +30.2 +25.8 77 +29 +29 жарко 1008.9 1009.0 +26.0 +36.4
09 17.09 штиль 0 20 км ясно +28.7 +26.2 86 +43 +43 опасность
перегрева
1008.7 1007.9
12 17.09 штиль 0 20 км ясно +28.0 +24.9 83 +40 +40 очень
душно
1008.7 1007.9 +27.5 +36.4
15 17.09 штиль 0 20 км ясно +30.0 +25.3 76 +44 +48 опасность
перегрева
1010.3 1009.5
18 17.09 Ю 2 20 км ясно +33.1 +26.2 67 +49 +65 опасность
перегрева
1010.5 1009.7 +27.5 +33.6
21 17.09 Ю 2 20 км ясно +34.4 +23.5 53 +45 +60 опасность
перегрева
1009.7 1008.9
00 18.09 Ю 3 20 км 5/1 600 м
[Cu med, cong As trans]
+33.3 +26.6 68 +50 +52 опасность
перегрева
1008.9 1008.1 +27.5 +36.2
03 18.09 Ю 1 20 км 3/0
[Ac trans]
+31.0 +26.5 77 +47 +47 опасность
перегрева
1009.5 1008.7
06 18.09 Ю 1 20 км 4/0
[Ac trans]
+26.7 +25.9 95 +22 +22 комфорт 1010.4 1009.6 +27.5 +36.2
09 18.09 штиль 0 20 км ясно +29.5 +25.3 78 +43 +43 опасность
перегрева
1009.8 1009.1
12 18.09 штиль 0 20 км ясно +28.6 +25.0 81 +41 +41 опасность
перегрева
1009.6 1008.9 +28.0 +36.2
15 18.09 Ю 1 20 км 3/0
[Cs]
+30.5 +25.1 73 +44 +47 опасность
перегрева
1010.7 1009.9
18 18.09 Ю 2 20 км 5/1 600 м
[Sc Ci ing]
+33.9 +24.9 59 +47 +60 опасность
перегрева
1011.7 1011.0 +28.0 +34.2
21 18.09 ЮВ 2 20 км 6/0
[Cs]
+35.3 +24.4 53 +47 +61 опасность
перегрева
1010.3 1009.6
00 19.09 ЮВ 2 20 км 4/0
[Cs]
+34.5 +24.9 58 +48 +50 опасность
перегрева
1008.5 1007.7 +28.0 +35.6
03 19.09 Ю 1 20 км 4/0
[Cs]
+30.1 +24.8 73 +43 +43 опасность
перегрева
1009.1 1008.3
12 19.09 штиль 0 20 км 4/0
[Cs]
+27.5 +21.1 68 +35 +35 очень
душно
1009.9 1009.1 +27.0 +35.6

 

Местоположение метеостанции Loreto (Мексика): широта 26.02 долгота -111.30 высота над уровнем моря 7 м.

В архиве по умолчанию представлена погода в Loreto за последнюю неделю. Архивные данные за месяц целиком и за предыдущие месяцы, начиная с января 2011 года, Вы можете получить, выбрав интересующий диапазон дат из раскрывающегося списка и нажав кнопку "Ввод!".

Внимание! Время в таблицах - всемирное. Для получения местного времени необходимо прибавить поправку, которая в Loreto равна -6 ч.

Смотрите также архив погоды в соседних городах и на ближайших метеорологических станциях:

Погода в Ciudad Constitucion (Мексика) (126 км)
Погода в Santa Rosalia (Мексика) (169 км)
Погода в Ciudad Obregon (Мексика) (211 км)
Погода в Guaymas Upper Air Site (Мексика) (215 км)
Погода в Empalme (Мексика) (223 км)
Погода в La Paz (Мексика) (229 км)
Погода в Choix (Мексика) (319 км)
Погода в Hermosillo la Magna (Мексика) (342 км)
Погода в Hermosillo (Мексика) (342 км)
Погода в Culiacan (Мексика) (415 км)

Пояснения к столбцам:

Ветер - указаны скорость ветра в м/с - средняя за 10 мин, порывы в срок и между сроками (в фигурных скобках) и направление, откуда дует ветер: С - северный, СВ - северо-восточный, В - восточный, ЮВ - юго-восточный, Ю - южный, ЮЗ - юго-западный, З - западный, СЗ - северо-западный.
Видимость - горизонтальная дальность видимости в метрах или километрах. При видимости от 1 до 10 км при отсутствии осадков обычно наблюдается дымка, при ухудшении видимости до 1 км и менее - туман. В сухую погоду видимость может ухудшаться дымом, пылью или мглою.
Явления - указаны атмосферные явления, наблюдавшиеся в срок или в последний час перед сроком; фигурными скобками обозначены явления, наблюдавшиеся между сроками (за 1-3 часа до срока); квадратными скобками обозначены град или гололедные отложения с указанием их диаметра в мм.
Облачность - указаны через наклонную черту общая и нижняя облачность в баллах и высота нижней границы облаков в метрах; квадратными скобками обозначены формы облаков: Ci - перистые, Cs - перисто-слоистые, Cc - перисто-кучевые, Ac - высококучевые, As - высокослоистые, Sc - слоисто-кучевые, Ns - слоисто-дождевые, Cu - кучевые, Cb - кучево-дождевые. Подробнее классификацию облаков см. в Атласе облаков (PDF).
T - Температура воздуха - температура, измеренная на высоте 2 м над землей.
Td - Температура точки росы - температура, при понижении до которой содержащийся в воздухе водяной пар достигнет насыщения.
f - Относительная влажность воздуха - влажноcть воздуха, измеренная на высоте 2 м над землей.
Te - Эффективная температура - температура, которую ощущает одетый по сезону человек в тени. Характеристика душности погоды. При расчете учитывается влияние влажности воздуха и скорости ветра на теплоощущения человека.
Tes - Эффективная температура на солнце - температура, которую ощущает человек, с поправкой на солнечный нагрев. Характеристика знойности погоды. Зависит от высоты солнца над горизонтом, облачности и скорости ветра. Ночью, в пасмурную погоду, а также при ветре 12 м/с и более поправка равна нулю.
P - Атмосферное давление - приведенное к уровню моря атмосферное давление.
Po - Атмосферное давление - измеренное на уровне метеостанции атмосферное давление.
Tmin - Минимальная температура - минимум температуры воздуха на высоте 2 м над землей.
Tmax - Максимальная температура - максимум температуры воздуха на высоте 2 м над землей.
R - Количество осадков - Количество выпавших осадков за период времени, мм. При наведении курсора мыши на число - период времени, за который выпало указанное количество осадков.
R24 - Количество осадков - Количество выпавших осадков за 24 часа, мм.
S - Снежный покров - Высота снежного покрова, см. При наведении курсора мыши на число - состояние снежного покрова и степень покрытия местности в баллах.